Location: Antichan
(42.9728°N, 0.6667°E)
Time: 18:18:47
(UTC+00:00)

Cosmos 2360 Rocket - Pass Details

Date: 15 August 2020
Orbit: 833 x 845 km, 71.0° (Epoch: 18 September)

Event Time Altitude Azimuth Distance (km) Brightness Sun altitude
Rises 20:21:52 0° 344° (NNW) 3,414 6.2 -14.3°
Reaches altitude 10° 20:24:54 10° 360° (N) 2,474 5.1 -14.7°
Maximum altitude 20:29:15 22° 50° (NE) 1,758 3.7 -15.4°
Enters shadow 20:32:02 16° 87° (E) 2,072 3.8 -15.8°
